LAN109 SCSE-SCEL

Flight info

Callsign LAN109
Flight time 0h 42m
Altitude 25000
Route EDRON5 EDRON UL302 SIMOK SIMOK7B
Aircraft A321/M-SDE3FGHIRWY/LB1

Departure

Time 2026-04-24 20:53
Airport La Florida Airport (SCSE)

Arrival

Time 2026-04-24 21:35
Airport Comodoro Arturo Merino Benítez International Airport (SCEL)
Time Latitude Longitude Altitude Speed Heading
2026-04-24 20:18 -29.91683 -71.20319 467 ft 0 kts 179°
2026-04-24 20:42 -29.91678 -71.20320 467 ft 3 kts 179°
2026-04-24 20:42 -29.91660 -71.20320 464 ft 2 kts 179°
2026-04-24 20:42 -29.91659 -71.20320 463 ft 0 kts 179°
2026-04-24 20:46 -29.91660 -71.20320 464 ft 1 kts 179°
2026-04-24 20:46 -29.91663 -71.20296 465 ft 6 kts 92°
2026-04-24 20:46 -29.91665 -71.20249 467 ft 5 kts 92°
2026-04-24 20:47 -29.91669 -71.20211 467 ft 5 kts 101°
2026-04-24 20:47 -29.91660 -71.20160 466 ft 7 kts 51°
2026-04-24 20:47 -29.91617 -71.20123 463 ft 9 kts 36°
2026-04-24 20:47 -29.91604 -71.20059 463 ft 8 kts 102°
2026-04-24 20:48 -29.91625 -71.20004 464 ft 11 kts 117°
2026-04-24 20:48 -29.91679 -71.19886 465 ft 18 kts 118°
2026-04-24 20:48 -29.91731 -71.19766 469 ft 15 kts 113°
2026-04-24 20:48 -29.91766 -71.19676 470 ft 10 kts 117°
2026-04-24 20:49 -29.91796 -71.19607 475 ft 13 kts 117°
2026-04-24 20:49 -29.91847 -71.19494 474 ft 15 kts 117°
2026-04-24 20:49 -29.91889 -71.19399 481 ft 11 kts 117°
2026-04-24 20:49 -29.91917 -71.19336 480 ft 7 kts 116°
2026-04-24 20:50 -29.91945 -71.19265 485 ft 16 kts 114°
2026-04-24 20:50 -29.92006 -71.19136 484 ft 18 kts 133°
2026-04-24 20:50 -29.92036 -71.19061 486 ft 3 kts 17°
2026-04-24 20:50 -29.92022 -71.19078 482 ft 3 kts 283°
2026-04-24 20:51 -29.92019 -71.19085 486 ft 0 kts 297°
2026-04-24 20:52 -29.92013 -71.19100 482 ft 9 kts 297°
2026-04-24 20:52 -29.91888 -71.19391 475 ft 78 kts 296°
2026-04-24 20:52 -29.91548 -71.20183 465 ft 139 kts 296°
2026-04-24 20:52 -29.91087 -71.21239 937 ft 147 kts 296°
2026-04-24 20:53 -29.90612 -71.22342 1383 ft 163 kts 295°
2026-04-24 20:53 -29.90103 -71.23579 1569 ft 180 kts 294°
2026-04-24 20:53 -29.89537 -71.24980 1626 ft 206 kts 294°
2026-04-24 20:53 -29.88869 -71.26556 1730 ft 231 kts 295°
2026-04-24 20:54 -29.88122 -71.28325 1932 ft 255 kts 294°
2026-04-24 20:54 -29.87353 -71.30201 2578 ft 262 kts 294°
2026-04-24 20:54 -29.86915 -71.32231 3186 ft 265 kts 263°
2026-04-24 20:54 -29.87438 -71.34234 3854 ft 264 kts 238°
2026-04-24 20:55 -29.88620 -71.35803 4532 ft 264 kts 215°
2026-04-24 20:55 -29.90285 -71.36683 5182 ft 267 kts 191°
2026-04-24 20:55 -29.92149 -71.36634 5774 ft 273 kts 165°
2026-04-24 20:55 -29.93940 -71.35835 6353 ft 279 kts 158°
2026-04-24 20:56 -29.95740 -71.34956 6939 ft 284 kts 158°
2026-04-24 20:56 -29.97574 -71.34058 7526 ft 289 kts 158°
2026-04-24 20:56 -29.99443 -71.33144 8114 ft 293 kts 158°
2026-04-24 20:56 -30.01335 -71.32221 8708 ft 297 kts 158°
2026-04-24 20:57 -30.03254 -71.31288 8959 ft 300 kts 158°
2026-04-24 20:57 -30.05181 -71.30352 9014 ft 300 kts 157°
2026-04-24 20:57 -30.07101 -71.29420 9015 ft 299 kts 158°
2026-04-24 20:57 -30.09094 -71.28763 9014 ft 299 kts 173°
2026-04-24 20:58 -30.11185 -71.28723 9468 ft 301 kts 184°
2026-04-24 20:58 -30.13224 -71.28809 10437 ft 288 kts 182°
2026-04-24 20:58 -30.15194 -71.28867 11141 ft 286 kts 182°
2026-04-24 20:58 -30.17185 -71.28915 11771 ft 286 kts 182°
2026-04-24 20:59 -30.19181 -71.28965 12389 ft 287 kts 182°
2026-04-24 20:59 -30.21185 -71.29017 13009 ft 288 kts 183°
2026-04-24 20:59 -30.23193 -71.29073 13615 ft 290 kts 183°
2026-04-24 20:59 -30.25220 -71.29133 14094 ft 297 kts 183°
2026-04-24 21:00 -30.27354 -71.29202 14214 ft 316 kts 183°
2026-04-24 21:00 -30.29610 -71.29275 14336 ft 334 kts 183°
2026-04-24 21:00 -30.31904 -71.29344 15166 ft 320 kts 184°
2026-04-24 21:00 -30.34064 -71.29403 16234 ft 304 kts 185°
2026-04-24 21:01 -30.36166 -71.29464 16949 ft 301 kts 186°
2026-04-24 21:01 -30.38252 -71.29529 17537 ft 301 kts 187°
2026-04-24 21:01 -30.40353 -71.29598 18104 ft 302 kts 187°
2026-04-24 21:01 -30.42463 -71.29670 18616 ft 304 kts 188°
2026-04-24 21:02 -30.44582 -71.29739 19086 ft 306 kts 188°
2026-04-24 21:02 -30.46713 -71.29806 19539 ft 307 kts 188°
2026-04-24 21:02 -30.48828 -71.29872 19976 ft 308 kts 188°
2026-04-24 21:02 -30.50977 -71.29940 20439 ft 310 kts 188°
2026-04-24 21:03 -30.53149 -71.29954 20881 ft 315 kts 183°
2026-04-24 21:03 -30.55351 -71.29596 21280 ft 325 kts 174°
2026-04-24 21:03 -30.57531 -71.28786 21689 ft 334 kts 164°
2026-04-24 21:03 -30.59631 -71.27555 22053 ft 344 kts 159°
2026-04-24 21:04 -30.61773 -71.26216 22189 ft 356 kts 159°
2026-04-24 21:04 -30.63991 -71.24842 22324 ft 367 kts 159°
2026-04-24 21:04 -30.66288 -71.23423 22465 ft 379 kts 159°
2026-04-24 21:04 -30.68646 -71.21967 22600 ft 390 kts 159°
2026-04-24 21:05 -30.71072 -71.20466 22733 ft 401 kts 159°
2026-04-24 21:05 -30.73562 -71.18915 22868 ft 411 kts 158°
2026-04-24 21:05 -30.76120 -71.17317 23013 ft 421 kts 158°
2026-04-24 21:05 -30.78722 -71.15689 23181 ft 428 kts 158°
2026-04-24 21:06 -30.81360 -71.14036 23493 ft 433 kts 158°
2026-04-24 21:06 -30.84021 -71.12367 23822 ft 436 kts 158°
2026-04-24 21:06 -30.86699 -71.10684 24135 ft 438 kts 159°
2026-04-24 21:06 -30.89387 -71.08995 24448 ft 441 kts 159°
2026-04-24 21:07 -30.92097 -71.07294 24759 ft 443 kts 159°
2026-04-24 21:07 -30.94809 -71.05591 25023 ft 444 kts 159°
2026-04-24 21:07 -30.97503 -71.03898 25096 ft 444 kts 159°
2026-04-24 21:07 -31.00256 -71.02167 25108 ft 444 kts 159°
2026-04-24 21:08 -31.02971 -71.00462 25109 ft 443 kts 159°
2026-04-24 21:08 -31.05656 -70.98779 25118 ft 443 kts 159°
2026-04-24 21:08 -31.08378 -70.97073 25125 ft 444 kts 159°
2026-04-24 21:08 -31.11097 -70.95367 25128 ft 444 kts 159°
2026-04-24 21:09 -31.13821 -70.93655 25134 ft 445 kts 159°
2026-04-24 21:09 -31.16542 -70.91945 25143 ft 445 kts 159°
2026-04-24 21:09 -31.19340 -70.90514 25141 ft 432 kts 172°
2026-04-24 21:09 -31.22244 -70.89985 25153 ft 416 kts 187°
2026-04-24 21:10 -31.25088 -70.90249 25156 ft 408 kts 194°
2026-04-24 21:10 -31.27913 -70.90647 25141 ft 408 kts 194°
2026-04-24 21:10 -31.30741 -70.91039 25160 ft 408 kts 194°
2026-04-24 21:10 -31.33565 -70.91428 25159 ft 408 kts 194°
2026-04-24 21:11 -31.36379 -70.91814 25159 ft 408 kts 194°
2026-04-24 21:11 -31.39195 -70.92195 25159 ft 408 kts 194°
2026-04-24 21:11 -31.42010 -70.92578 25161 ft 408 kts 194°
2026-04-24 21:11 -31.44830 -70.92963 25163 ft 407 kts 194°
2026-04-24 21:12 -31.47641 -70.93348 25163 ft 407 kts 194°
2026-04-24 21:12 -31.49502 -70.93604 25163 ft 407 kts 194°
2026-04-24 21:12 -31.53270 -70.94122 25161 ft 406 kts 195°
2026-04-24 21:12 -31.56043 -70.94501 24999 ft 397 kts 194°
2026-04-24 21:13 -31.58759 -70.94867 24762 ft 387 kts 194°
2026-04-24 21:13 -31.61396 -70.95226 24535 ft 378 kts 195°
2026-04-24 21:13 -31.63979 -70.95585 24307 ft 372 kts 195°
2026-04-24 21:13 -31.66550 -70.95949 24080 ft 370 kts 195°
2026-04-24 21:14 -31.69101 -70.96310 23852 ft 369 kts 195°
2026-04-24 21:14 -31.71643 -70.96669 23608 ft 368 kts 195°
2026-04-24 21:14 -31.74172 -70.97021 23335 ft 363 kts 194°
2026-04-24 21:14 -31.76684 -70.97200 23072 ft 361 kts 187°
2026-04-24 21:15 -31.79176 -70.97103 22806 ft 354 kts 186°
2026-04-24 21:15 -31.81613 -70.97006 22542 ft 346 kts 186°
2026-04-24 21:15 -31.84009 -70.96919 22278 ft 344 kts 186°
2026-04-24 21:15 -31.86401 -70.96838 22023 ft 343 kts 186°
2026-04-24 21:16 -31.88782 -70.96756 21762 ft 342 kts 185°
2026-04-24 21:16 -31.91161 -70.96672 21513 ft 342 kts 186°
2026-04-24 21:16 -31.93540 -70.96588 21267 ft 346 kts 185°
2026-04-24 21:16 -31.96006 -70.96508 21127 ft 360 kts 186°
2026-04-24 21:17 -31.98529 -70.96424 21150 ft 364 kts 185°
2026-04-24 21:17 -32.01033 -70.96332 21150 ft 366 kts 185°
2026-04-24 21:17 -32.03612 -70.96235 21149 ft 366 kts 185°
2026-04-24 21:17 -32.05307 -70.96171 21156 ft 366 kts 185°
2026-04-24 21:18 -32.08678 -70.96050 21148 ft 366 kts 185°
2026-04-24 21:18 -32.11226 -70.95958 21153 ft 367 kts 185°
2026-04-24 21:18 -32.13779 -70.95859 21154 ft 366 kts 185°
2026-04-24 21:18 -32.16331 -70.95757 21157 ft 366 kts 185°
2026-04-24 21:19 -32.18880 -70.95659 21151 ft 366 kts 185°
2026-04-24 21:19 -32.21429 -70.95566 21155 ft 366 kts 185°
2026-04-24 21:19 -32.23974 -70.95475 21153 ft 366 kts 185°
2026-04-24 21:19 -32.26511 -70.95383 21162 ft 366 kts 185°
2026-04-24 21:20 -32.31616 -70.95199 20366 ft 366 kts 184°
2026-04-24 21:20 -32.34157 -70.95105 19761 ft 367 kts 184°
2026-04-24 21:20 -32.36696 -70.95007 19354 ft 365 kts 184°
2026-04-24 21:21 -32.39234 -70.94911 18945 ft 361 kts 183°
2026-04-24 21:21 -32.41750 -70.94816 18456 ft 362 kts 183°
2026-04-24 21:21 -32.44265 -70.94722 17977 ft 360 kts 183°
2026-04-24 21:21 -32.46753 -70.94632 17574 ft 357 kts 183°
2026-04-24 21:22 -32.49201 -70.94545 17142 ft 355 kts 182°
2026-04-24 21:22 -32.51690 -70.94450 16722 ft 352 kts 182°
2026-04-24 21:22 -32.54126 -70.94360 16322 ft 349 kts 182°
2026-04-24 21:22 -32.55736 -70.94302 16058 ft 347 kts 182°
2026-04-24 21:23 -32.58941 -70.94187 15531 ft 344 kts 182°
2026-04-24 21:23 -32.61331 -70.94097 15145 ft 342 kts 181°
2026-04-24 21:23 -32.63706 -70.94008 14741 ft 341 kts 181°
2026-04-24 21:23 -32.66073 -70.93920 14465 ft 336 kts 181°
2026-04-24 21:24 -32.68372 -70.93834 14346 ft 326 kts 181°
2026-04-24 21:24 -32.70600 -70.93748 14226 ft 316 kts 181°
2026-04-24 21:24 -32.72762 -70.93667 14109 ft 306 kts 181°
2026-04-24 21:24 -32.74859 -70.93585 13991 ft 297 kts 180°
2026-04-24 21:25 -32.76888 -70.93213 13754 ft 294 kts 170°
2026-04-24 21:25 -32.78865 -70.92681 13168 ft 301 kts 170°
2026-04-24 21:25 -32.80970 -70.92133 12304 ft 318 kts 170°
2026-04-24 21:25 -32.83177 -70.91576 11567 ft 329 kts 170°
2026-04-24 21:26 -32.85433 -70.91007 11085 ft 331 kts 169°
2026-04-24 21:26 -32.87677 -70.90404 10685 ft 330 kts 168°
2026-04-24 21:26 -32.89909 -70.89779 10349 ft 327 kts 168°
2026-04-24 21:26 -32.92093 -70.89219 10226 ft 315 kts 174°
2026-04-24 21:27 -32.94242 -70.89044 10063 ft 306 kts 179°
2026-04-24 21:27 -32.95654 -70.88964 9751 ft 308 kts 179°
2026-04-24 21:27 -32.97803 -70.88850 9329 ft 307 kts 179°
2026-04-24 21:27 -32.99917 -70.88743 9023 ft 302 kts 179°
2026-04-24 21:28 -33.02043 -70.88635 8295 ft 313 kts 179°
2026-04-24 21:28 -33.04178 -70.88528 8206 ft 297 kts 179°
2026-04-24 21:28 -33.06169 -70.88425 8201 ft 276 kts 179°
2026-04-24 21:28 -33.08038 -70.88329 8225 ft 260 kts 178°
2026-04-24 21:29 -33.09783 -70.87920 8205 ft 255 kts 160°
2026-04-24 21:29 -33.11343 -70.86957 7797 ft 252 kts 149°
2026-04-24 21:29 -33.12816 -70.85885 7511 ft 241 kts 149°
2026-04-24 21:29 -33.14208 -70.84878 7214 ft 230 kts 149°
2026-04-24 21:30 -33.15517 -70.83929 6755 ft 225 kts 148°
2026-04-24 21:30 -33.16823 -70.82984 6233 ft 222 kts 149°
2026-04-24 21:30 -33.18130 -70.82042 5660 ft 218 kts 149°
2026-04-24 21:30 -33.19516 -70.81367 5121 ft 213 kts 169°
2026-04-24 21:31 -33.20983 -70.81245 4650 ft 210 kts 177°
2026-04-24 21:31 -33.22422 -70.81170 4463 ft 201 kts 177°
2026-04-24 21:31 -33.23790 -70.81096 4232 ft 193 kts 177°
2026-04-24 21:31 -33.25105 -70.81025 3994 ft 185 kts 177°
2026-04-24 21:32 -33.26372 -70.80955 3767 ft 180 kts 178°
2026-04-24 21:32 -33.27609 -70.80891 3532 ft 175 kts 178°
2026-04-24 21:32 -33.28801 -70.80829 3313 ft 168 kts 178°
2026-04-24 21:32 -33.29953 -70.80767 3103 ft 164 kts 178°
2026-04-24 21:33 -33.31068 -70.80704 2890 ft 158 kts 177°
2026-04-24 21:33 -33.32161 -70.80644 2675 ft 156 kts 177°
2026-04-24 21:33 -33.33241 -70.80584 2454 ft 156 kts 176°
2026-04-24 21:33 -33.34322 -70.80524 2243 ft 154 kts 175°
2026-04-24 21:34 -33.35369 -70.80468 2055 ft 154 kts 176°
2026-04-24 21:34 -33.36422 -70.80413 1847 ft 154 kts 176°
2026-04-24 21:34 -33.37494 -70.80361 1609 ft 151 kts 176°
2026-04-24 21:34 -33.38482 -70.80307 1573 ft 130 kts 176°
2026-04-24 21:35 -33.39129 -70.80268 1573 ft 52 kts 176°
2026-04-24 21:35 -33.39385 -70.80160 1570 ft 31 kts 146°
2026-04-24 21:35 -33.39481 -70.80081 1566 ft 0 kts 136°
2026-04-24 21:37 -33.39482 -70.80080 1566 ft 1 kts 137°
2026-04-24 21:37 -33.39509 -70.80046 1566 ft 10 kts 127°
2026-04-24 21:37 -33.39531 -70.79932 1565 ft 18 kts 87°
2026-04-24 21:37 -33.39525 -70.79771 1565 ft 19 kts 88°
2026-04-24 21:38 -33.39523 -70.79626 1564 ft 16 kts 84°
2026-04-24 21:38 -33.39514 -70.79511 1564 ft 12 kts 87°
2026-04-24 21:38 -33.39510 -70.79422 1564 ft 11 kts 87°
2026-04-24 21:38 -33.39506 -70.79304 1564 ft 17 kts 87°
2026-04-24 21:39 -33.39500 -70.79166 1564 ft 15 kts 87°
2026-04-24 21:39 -33.39495 -70.79057 1564 ft 11 kts 88°
2026-04-24 21:39 -33.39511 -70.79006 1564 ft 0 kts 171°
2026-04-24 21:39 -33.39514 -70.79009 1564 ft 3 kts 194°
2026-04-24 21:40 -33.39549 -70.79015 1564 ft 5 kts 184°
2026-04-24 21:40 -33.39555 -70.79016 1564 ft 0 kts 184°
2026-04-24 21:41 -33.39559 -70.79016 1564 ft 3 kts 184°
2026-04-24 21:41 -33.39568 -70.79017 1564 ft 0 kts 184°